North Las Vegas, NV

6:24 AM PDT on August 27, 2016 (GMT -0700)
North Las Vegas

Weather History for KVGT - November, 2013

Change the Weather History Date:

Tuesday, November 19, 2013

  Actual Average Record
Temperature  
Mean Temperature 57 °F 55 °F  
Max Temperature 64 °F 65 °F 75 °F (1954)
Min Temperature 50 °F 45 °F 32 °F (2000)
Degree Days  
Heating Degree Days 8 10  
Month to date heating degree days 129  
Since 1 July heating degree days 173  
Cooling Degree Days 0 0  
Month to date cooling degree days 8  
Year to date cooling degree days 3292  
Growing Degree Days 7 (Base 50)    
Moisture  
Dew Point 38 °F    
Average Humidity 51    
Maximum Humidity 63    
Minimum Humidity 37    
Precipitation  
Precipitation 0.00 in 0.02 in 0.00 in (2016)
Month to date precipitation 0.26  
Year to date precipitation 4.63  
Sea Level Pressure  
Sea Level Pressure 29.96 in    
Wind  
Wind Speed 2 mph (NNW)    
Max Wind Speed 6 mph    
Max Gust Speed -    
Visibility 10 miles    
Events      
T = Trace of Precipitation, MM = Missing Value Source: NWS Daily Summary

Daily Weather History Graph

Daily Weather History Graph

Search for Another Location

Airport or City:

Trip Planner

Search our weather history database for the weather conditions in past years. The results will help you decide how hot, cold, wet, or windy it might be!

Date:

Astronomy

Nov. 19, 2013 Rise Set
Actual Time 6:22 AM PST 4:30 PM PST
Civil Twilight 5:54 AM PST 4:57 PM PST
Nautical Twilight 5:23 AM PST 5:29 PM PST
Astronomical Twilight 4:52 AM PST 5:59 PM PST
Moon 6:25 PM PST (11/19) 8:04 AM PST (11/19)
Length of Visible Light 11h 03m
Length of Day
10h 08m
Waning Gibbous, 95% of the Moon is Illuminated
Nov 19
Waning Gibbous
Nov 25
Last Quarter
Dec 2
New
Dec 9
First Quarter
Dec 17
Full

Hourly Weather History & Observations

Time (PST) Temp. Dew Point Humidity Pressure Visibility Wind Dir Wind Speed Gust Speed Precip Events Conditions
12:53 AM 53.1 °F 37.9 °F 57% 30.01 in 10.0 mi Calm Calm - N/A   Clear
1:53 AM 52.0 °F 37.9 °F 59% 30.00 in 10.0 mi NNW 3.5 mph - N/A   Clear
2:53 AM 52.0 °F 37.9 °F 59% 29.98 in 10.0 mi NW 3.5 mph - N/A   Clear
3:53 AM 51.1 °F 37.0 °F 59% 29.98 in 10.0 mi Calm Calm - N/A   Clear
4:53 AM 51.1 °F 37.0 °F 59% 29.98 in 10.0 mi NW 3.5 mph - N/A   Clear
5:53 AM 50.0 °F 37.9 °F 63% 29.99 in 10.0 mi NNW 3.5 mph - N/A   Clear
6:53 AM 51.1 °F 37.0 °F 59% 30.00 in 10.0 mi North 4.6 mph - N/A   Clear
7:53 AM 54.0 °F 37.9 °F 55% 30.00 in 10.0 mi Calm Calm - N/A   Clear
8:53 AM 55.9 °F 39.0 °F 53% 30.01 in 10.0 mi Calm Calm - N/A   Clear
9:53 AM 59.0 °F 37.9 °F 46% 30.01 in 10.0 mi North 3.5 mph - N/A   Clear
10:53 AM 60.1 °F 39.0 °F 46% 29.99 in 10.0 mi ENE 3.5 mph - N/A   Clear
11:53 AM 62.1 °F 37.9 °F 41% 29.97 in 10.0 mi Calm Calm - N/A   Clear
12:53 PM 64.0 °F 37.9 °F 38% 29.95 in 10.0 mi ESE 3.5 mph - N/A   Clear
1:53 PM 64.9 °F 37.9 °F 37% 29.93 in 10.0 mi Calm Calm - N/A   Clear
2:53 PM 64.0 °F 37.0 °F 37% 29.92 in 10.0 mi Calm Calm - N/A   Clear
3:53 PM 64.0 °F 37.9 °F 38% 29.91 in 10.0 mi SSE 3.5 mph - N/A   Clear
4:53 PM 62.1 °F 37.0 °F 39% 29.93 in 10.0 mi Calm Calm - N/A   Clear
5:53 PM 60.1 °F 37.0 °F 42% 29.94 in 10.0 mi Calm Calm - N/A   Clear
6:53 PM 57.0 °F 39.0 °F 51% 29.93 in 10.0 mi Calm Calm - N/A   Clear
7:53 PM 57.0 °F 39.0 °F 51% 29.93 in 10.0 mi Calm Calm - N/A   Clear
8:53 PM 53.1 °F 37.9 °F 57% 29.94 in 10.0 mi NW 5.8 mph - N/A   Clear
9:53 PM 53.1 °F 37.9 °F 57% 29.94 in 10.0 mi WNW 4.6 mph - N/A   Clear
10:53 PM 51.1 °F 37.9 °F 61% 29.93 in 10.0 mi North 4.6 mph - N/A   Clear
11:53 PM 50.0 °F 37.0 °F 61% 29.93 in 10.0 mi NW 4.6 mph - N/A   Clear